OneWeb SL0325

operational
NORAD ID: 49194 Int'l Des: 2021-083 Owner: ONEWEBN Country: UK Constellation: oneweb
LEOCIRCULARPOLARONEWEB_TYPE

关于 OneWeb SL0325

正在加载描述...

实时位置

正在加载3D地球...

即将过境

高度历史

Altitude vs Time

uPlot chart will show altitude changes over time

两行轨道根数

1 49194U 21083J 26036.94859611 .00000029 00000-0 40481-4 0 9993
2 49194 87.9214 1.5199 0001763 81.5010 278.6322 13.18687298212713
Epoch: Feb 5, 2026 • Age: 17 hours

当前状态

高度 1194.1 km
速度 7.26 km/s
星下点 -6.60°S, 163.34°E
发射日期 Sep 14, 2021
运行时间 4.3 years
类型 internet

技术详情

分类 Payload
质量 148.00 kg
干质量 140.00 kg
总质量 148.00 kg
长度 1.30 m
直径 1.00 m
跨度 5.00 m
形状 Trapezoid+2 pan
制造商 ONEWUS
平台类型 ARROW
阶段状态 In Orbit
所有者/国家 ONEWEBN/UK

大型星座

Loading constellations...